Regional Weather Roundup
Issued by NWS

Home | Current Version | Previous Version | Graphics & Text | Print | Product List | Glossary On
Versions: 1 2 3 4 5 6 7 8 9 10 11 12 13 14 15 16 17 18 19 20 21 22 23 24 25 26 27 28
000
ASUS45 KCYS 232310
RWRWY

WYOMING REGIONAL WEATHER ROUNDUP
NATIONAL WEATHER SERVICE CHEYENNE WY
500 PM MDT WED AUG 23 2017

NOTE:  "FAIR" INDICATES FEW OR NO CLOUDS BELOW 12,000 FEET
WITH NO SIGNIFICANT WEATHER AND/OR OBSTRUCTIONS TO VISIBILITY.

WYZ001-240000-
YELLOWSTONE NATIONAL PARK

CITY           SKY/WX    TMP DP  RH WIND       PRES   REMARKS
LK YELLOWSTONE   N/A     56  53  90 NW6       30.35R
W YELLOWSTONE  NOT AVBL

$$
WYZ002>013-054>058-071-098>099-240000-
NORTHERN WYOMING

CITY           SKY/WX    TMP DP  RH WIND       PRES   REMARKS
JACKSON        FAIR      71  41  33 E6        30.25S
CODY           FAIR      81  43  26 N8        30.06F
GREYBULL       FAIR      94  25   8 SW6       29.93F
WORLAND        FAIR      92  30  11 NW5       29.96F
SHERIDAN       FAIR      94  31  10 VRB3      29.96F
BUFFALO        FAIR      92  27   9 E5        30.04F
GILLETTE       FAIR      92  29  10 NE12      29.99F
HULETT         FAIR      88  39  18 NE12      30.02F
NEWCASTLE      FAIR      90  32  12 NW7       29.99F

$$
WYZ014>020-022>026-101>103-240000-
CENTRAL WYOMING

CITY           SKY/WX    TMP DP  RH WIND       PRES   REMARKS
BIG PINEY      FAIR      74  40  29 SE8       30.27F
PINEDALE       MOCLDY    70  41  35 N13       30.29F
DUBOIS         FAIR      64  36  34 SW17G33   30.25S
LANDER           N/A    N/A N/A N/A MISG      30.10F
RIVERTON       FAIR      85  29  13 S7        30.08F
CASPER         FAIR      89  26  10 W12G18    30.06F
DOUGLAS        FAIR      86  40  19 S14       30.05F

$$
WYZ021-027>030-104>119-240000-
SOUTHERN WYOMING

CITY           SKY/WX    TMP DP  RH WIND       PRES   REMARKS
EVANSTON       PTSUNNY   70  43  37 SE9       30.28F
KEMMERER         N/A     72  37  28 W6        30.28F
FORT BRIDGER   FAIR      76  42  29 S13       30.30F
ROCK SPRINGS   FAIR      73  38  27 W9        30.24F
DIXON          FAIR      79  36  21 W6        30.24S
RAWLINS        FAIR      77  37  23 SW16      30.22F
SARATOGA       CLOUDY    68  41  37 SE23G32   30.25S
LARAMIE        LGT RAIN  65  46  50 CALM      30.29S
CHEYENNE       PTSUNNY   75  41  29 N7        30.18S
TORRINGTON     FAIR      90  32  12 SE8       29.99S
PINE BLUFFS    MOCLDY    70  59  68 S7        30.12F

$$




USA.gov is the U.S. government's official web portal to all federal, state and local government web resources and services.